Temperature
14 15 15 16 13 11 12 14 15 17 17 19 19 18 17 17 17 17 17 17 17 16 16 16 16 16 16 16 16 16 16 16 16 16 16 16 16 16 16 16 15 15 15 15 15 15 15 15 15
14 15 15 15 11 12 12 13 15 16 18 19 19 18 17 16 16 16 16 16 16 16 16 16 16 16 16 16 16 16 16 16 16 16 16 16 16 16 16 16 15 15 15 15 15 15 15 15 15
14 14 14 10 10 12 14 14 15 17 18 18 18 17 17 16 16 16 16 16 16 16 16 16 16 16 16 16 16 16 16 16 16 16 15 15 16 16 16 15 15 15 15 15 15 15 15 15 14
14 14 13 10 11 12 13 15 15 16 17 18 17 16 16 15 16 16 16 16 16 15 15 15 15 16 16 16 16 16 16 16 15 15 15 15 15 15 15 15 15 15 15 15 15 15 15 14 14
13 13 10 10 11 12 13 15 16 15 15 16 16 15 15 15 15 16 16 16 15 15 15 15 15 15 15 16 16 15 15 15 15 15 15 15 15 15 15 15 15 15 15 15 15 15 15 14 14
12 10 9 10 11 12 13 15 15 14 14 15 15 14 14 14 15 15 15 15 15 15 15 15 15 15 15 15 15 15 15 15 15 15 15 15 15 15 15 15 15 15 15 15 15 14 14 14 14
11 8 9 10 11 12 13 14 14 13 13 14 15 13 13 14 14 14 14 15 14 14 14 14 14 14 15 15 15 15 15 15 14 15 15 15 15 15 15 15 15 15 15 15 14 14 14 14 14
11 8 9 9 10 11 12 13 14 13 13 13 14 12 12 12 13 13 14 14 14 14 14 14 14 14 14 14 14 14 14 14 14 14 14 14 14 14 14 14 14 15 15 15 14 14 14 14 14
11 8 8 9 10 10 12 12 12 13 13 12 12 12 12 12 12 13 13 13 13 13 13 13 13 14 14 14 14 14 14 14 14 14 14 14 14 14 14 14 14 14 14 14 14 14 14 14 14
9 7 8 10 10 10 11 11 11 12 11 11 11 12 12 12 12 12 12 12 12 12 13 13 13 13 13 13 13 13 13 13 13 14 14 14 14 14 14 14 14 14 14 14 14 14 14 13 13
8 7 8 9 10 10 10 10 11 10 9 10 10 10 11 11 11 11 11 11 11 12 12 12 12 13 13 13 13 13 13 13 13 13 13 13 13 13 13 13 14 13 13 14 14 13 13 13 13
7 7 8 9 9 9 9 9 9 9 9 10 10 10 10 10 10 10 10 10 11 11 11 11 12 12 12 13 13 13 13 13 13 13 13 13 13 13 13 13 13 13 13 13 13 13 13 13 13
6 7 7 8 8 8 9 8 8 8 9 10 10 10 10 10 9 10 10 10 10 10 11 11 11 11 12 12 12 12 13 13 13 13 12 13 13 13 13 13 13 13 13 13 13 13 13 13 13
6 6 6 7 8 8 7 7 8 7 8 9 9 9 9 9 9 9 9 10 10 10 10 10 11 11 11 12 12 12 12 12 12 12 12 12 12 13 13 13 13 12 12 13 13 12 12 12 12
6 5 5 6 7 7 7 6 6 7 8 7 7 8 8 8 8 9 9 9 9 10 10 10 10 10 11 11 12 12 12 12 12 12 12 12 12 12 12 12 12 12 12 12 12 12 12 12 12
5 4 4 5 6 7 6 5 5 7 7 6 6 7 7 7 7 8 8 9 9 9 10 10 10 10 10 11 11 11 11 11 11 11 12 12 12 12 12 12 12 12 12 12 12 12 12 12 12
3 3 3 5 5 6 5 4 5 6 6 5 5 5 6 6 7 7 7 8 8 9 9 9 9 9 10 10 11 11 11 11 11 11 11 11 11 11 12 12 12 12 12 12 11 11 11 11 11
2 2 3 4 5 4 4 3 4 5 4 4 4 5 5 5 6 6 7 7 8 8 8 9 9 9 9 9 10 10 10 10 10 11 11 11 11 11 11 11 11 11 11 11 11 11 11 11 11
3 3 2 3 5 4 3 3 3 3 3 3 3 3 4 4 5 6 6 7 7 7 8 8 8 8 9 9 9 9 10 10 10 10 10 10 11 11 11 11 11 11 11 11 11 11 11 11 11
3 2 2 3 4 4 3 2 3 3 2 3 3 3 3 4 5 5 6 6 6 7 7 7 7 8 8 8 9 9 9 10 10 10 10 10 10 10 10 11 11 11 11 11 11 11 11 11 11
2 2 2 2 3 3 3 2 2 2 3 2 2 3 3 3 4 4 5 5 6 6 6 6 7 7 7 8 8 8 9 9 9 9 9 9 10 10 10 10 10 10 10 11 11 11 11 11 11
1 2 2 3 2 1 2 1 1 1 1 1 1 2 2 2 3 4 4 5 5 5 5 6 6 6 7 7 7 8 8 8 9 9 9 9 9 9 9 10 10 10 10 10 10 10 11 11 11
1 2 2 2 1 1 1 0 0 1 1 0 1 1 1 2 2 3 3 4 4 5 5 5 5 6 6 6 7 7 8 8 8 8 9 9 9 9 9 9 9 10 10 10 10 10 10 10 11
1 1 1 1 0 0 0 0 -0 -1 -1 -1 -1 -0 0 1 2 2 3 4 4 4 5 5 5 5 6 6 6 6 7 7 8 8 8 8 8 8 9 9 9 9 9 9 10 10 10 10 10
-0 -1 -1 -1 -1 -0 0 -0 -1 -2 -1 -1 -1 -1 -1 0 1 1 2 3 3 4 4 4 4 5 5 5 6 6 6 7 7 8 8 8 8 8 8 9 9 9 9 9 9 9 9 9 10
-1 -1 -1 -1 -1 -1 -1 -1 -2 -2 -1 -1 -2 -2 -1 -1 -0 0 1 2 2 3 3 3 4 4 4 5 5 5 6 6 7 7 7 8 8 8 8 8 8 8 8 9 9 9 9 9 9
-1 -2 -2 -3 -2 -2 -2 -2 -2 -2 -2 -2 -2 -2 -2 -2 -1 -1 0 1 1 2 2 3 3 3 4 4 4 5 5 6 6 7 7 7 7 7 8 8 8 8 8 8 8 8 9 9 9
-1 -2 -3 -3 -2 -2 -2 -3 -3 -3 -3 -3 -3 -3 -3 -3 -2 -2 -1 -0 0 1 1 2 2 3 3 4 4 4 5 5 6 6 6 6 7 7 7 7 8 8 8 8 8 8 8 8 8
-3 -3 -4 -4 -3 -3 -3 -3 -3 -4 -4 -4 -3 -3 -3 -3 -3 -2 -2 -1 -1 0 1 1 2 2 3 3 3 4 4 5 5 6 6 6 6 6 7 7 7 7 7 7 8 8 8 7 8
-3 -4 -5 -4 -4 -5 -4 -4 -3 -4 -4 -4 -4 -3 -4 -4 -3 -3 -2 -2 -1 -0 -0 0 1 1 2 2 3 3 4 4 5 5 5 6 6 6 6 6 6 7 7 7 7 7 7 7 7
Wind_Speed
14 11 2 4 5 4 3 5 4 3 2 2 1 5 6 5 3 3 2 7 9 11 14 16 16 16 16 16 16 16 15 15 15 15 15 15 15 15 15 15 15 15 16 17 18 18 18 18 18
9 4 4 5 5 3 5 5 6 5 4 1 2 3 5 4 3 5 4 5 10 11 13 15 16 16 16 16 16 15 15 14 14 15 15 15 15 14 15 15 15 16 16 17 17 17 17 16 16
6 1 4 4 4 7 6 5 8 5 2 0 1 3 4 3 3 3 3 8 9 9 12 14 17 16 16 16 15 15 15 14 14 14 14 15 15 14 14 15 15 16 16 16 16 16 15 15 15
3 4 4 3 6 7 5 4 4 2 2 2 2 4 3 2 2 3 8 10 11 8 11 14 16 16 15 15 15 15 15 14 14 14 14 14 14 15 15 15 16 16 16 16 15 15 14 14 15
3 4 3 2 7 5 4 4 2 1 1 1 2 4 2 5 5 10 11 11 11 8 10 13 15 15 15 15 14 15 15 15 14 14 13 14 14 14 15 15 15 15 15 15 15 14 14 14 15
3 3 3 7 8 4 4 3 2 1 1 1 3 4 2 3 7 8 10 10 9 9 9 12 13 13 14 14 14 14 15 15 14 13 13 14 14 14 14 14 14 15 15 14 14 13 13 14 15
3 3 4 5 5 4 3 2 1 1 0 1 1 4 1 3 3 6 8 8 8 8 8 9 10 11 12 13 13 13 14 15 14 13 13 14 13 13 13 14 14 14 14 14 13 13 13 13 14
3 3 2 3 5 5 3 1 0 0 1 1 3 5 2 0 2 6 8 8 7 7 6 7 8 9 9 10 12 12 13 14 14 14 14 14 13 13 13 14 14 14 14 13 13 13 13 13 13
2 2 5 5 5 4 2 1 2 1 3 3 3 2 2 5 6 8 8 7 6 6 5 5 6 7 8 9 10 11 12 13 13 14 15 13 12 12 12 13 14 14 13 13 12 12 12 12 12
2 5 7 4 2 1 1 1 2 2 3 3 5 7 5 7 8 8 8 9 8 7 5 4 5 5 6 7 8 9 9 11 11 11 12 11 11 11 10 12 14 13 13 12 11 11 11 10 10
2 5 4 2 2 1 1 2 3 2 1 0 3 3 4 5 6 6 6 6 7 7 6 5 4 5 5 5 6 6 7 8 9 10 10 10 10 9 9 9 10 10 11 10 10 10 8 8 8
1 3 2 2 3 2 2 1 2 2 2 1 4 6 5 5 4 4 4 4 5 6 5 5 4 4 4 5 5 6 5 6 7 8 10 10 7 7 8 7 8 8 8 8 8 7 8 7 8
3 3 3 2 3 1 1 1 1 2 2 2 5 6 5 4 2 1 2 2 3 5 4 5 4 4 4 4 4 5 5 5 7 9 10 10 7 6 7 6 7 7 8 7 7 7 7 7 7
2 2 3 3 3 1 1 2 1 3 2 4 5 4 3 3 2 3 2 2 1 2 3 4 5 4 4 3 3 4 5 6 7 8 9 11 9 8 7 6 6 6 7 8 7 7 7 6 7
1 1 4 4 3 2 2 3 3 2 3 4 3 3 3 2 3 2 1 1 1 2 2 3 4 3 4 4 4 5 5 6 6 7 9 10 10 9 7 6 5 7 8 8 8 7 7 6 6
1 0 3 4 3 1 3 5 4 1 3 3 3 2 3 2 3 2 2 1 1 1 2 2 2 3 3 3 3 4 5 6 6 7 8 9 10 10 8 6 5 8 8 8 6 5 5 4 4
1 2 4 4 1 0 3 4 3 2 3 2 2 2 3 4 5 4 3 2 1 1 1 1 1 2 2 3 3 4 5 5 6 6 7 8 10 10 9 6 6 9 8 6 6 4 4 5 5
2 3 3 3 1 1 2 3 2 2 2 1 1 2 3 3 4 4 3 3 2 1 1 1 1 1 1 1 3 3 3 3 4 5 6 8 9 10 9 7 7 8 6 4 5 5 4 5 5
2 1 3 4 2 1 4 3 3 1 2 2 2 2 3 4 4 4 4 4 4 3 2 1 1 1 1 2 3 4 4 4 3 4 6 8 8 9 9 7 7 6 5 6 6 6 6 4 5
2 2 3 4 2 1 3 3 2 0 0 1 1 2 3 4 5 5 4 4 3 3 2 0 0 0 1 1 3 4 5 4 4 3 5 7 8 8 8 7 6 6 5 6 6 6 4 3 3
3 3 3 4 4 0 2 2 2 2 1 2 3 3 4 4 4 4 4 4 3 3 3 2 1 1 1 1 1 1 2 2 2 3 3 4 7 8 8 8 7 6 5 6 7 6 6 5 2
4 4 5 4 1 2 1 3 3 3 3 4 5 4 4 5 4 4 5 5 4 3 3 2 2 1 1 1 1 2 4 4 4 5 4 4 6 7 8 8 7 6 5 6 6 5 4 6 5
4 7 6 4 2 1 1 2 4 2 2 5 6 5 5 5 4 4 4 4 5 4 4 3 2 2 1 1 1 2 3 3 3 4 4 4 4 5 7 8 7 6 5 5 6 5 4 4 5
6 4 3 1 2 2 3 3 3 1 3 5 6 7 6 6 5 5 5 5 5 5 5 4 3 3 2 1 1 3 4 3 4 5 6 5 4 3 4 6 6 6 5 6 6 6 6 4 4
5 3 3 3 1 4 1 2 3 2 3 3 4 6 7 6 6 6 7 7 7 6 6 5 4 4 4 2 2 3 4 5 6 7 7 6 4 3 5 4 5 5 5 7 7 6 6 5 5
3 2 3 2 3 3 1 3 2 1 3 3 4 5 7 8 7 6 6 6 6 7 6 5 5 5 4 3 3 3 3 4 4 5 6 7 6 5 6 5 6 6 6 6 6 5 5 4 5
1 1 1 2 1 2 3 2 4 4 5 5 6 7 8 8 9 8 7 6 6 6 6 5 5 5 5 4 3 3 3 3 4 4 5 5 5 5 5 5 5 5 6 6 5 5 5 5 5
2 1 2 2 0 2 3 2 3 4 5 5 6 7 8 9 9 9 8 7 7 6 6 4 4 4 5 5 3 3 4 3 3 4 5 5 5 5 6 6 5 5 5 5 5 4 5 5 5
3 2 1 1 1 2 3 4 3 2 3 3 4 6 7 8 8 8 8 7 7 6 6 5 4 5 5 5 5 3 4 3 2 2 3 5 5 6 7 7 6 6 6 5 5 5 5 6 5
1 1 2 1 2 2 2 5 2 1 2 3 5 6 7 7 7 8 7 7 7 7 6 5 5 5 5 5 5 4 3 3 2 2 3 3 5 6 6 6 6 6 6 6 6 6 6 6 6
Wind_Direction
332 334 28 56 61 62 227 243 235 251 227 220 118 111 122 118 136 152 111 125 130 145 152 148 145 142 139 135 131 127 123 120 119 118 117 116 114 114 115 114 113 112 109 105 102 100 98 95 94
332 345 51 65 110 184 248 240 234 233 212 182 72 87 88 75 65 101 100 129 137 145 148 149 145 142 141 138 134 131 128 125 122 121 121 119 117 117 117 116 113 113 111 107 104 102 99 97 96
329 30 84 95 153 198 218 228 219 243 277 312 72 62 102 114 103 120 140 138 130 135 144 148 145 143 141 140 137 135 133 131 127 125 124 122 120 118 118 117 114 113 113 110 107 104 100 96 95
34 51 68 114 208 222 214 234 216 226 334 352 119 81 75 61 136 138 133 130 127 122 137 145 143 143 141 140 140 139 138 134 130 129 128 124 123 120 117 117 115 115 114 113 109 106 100 95 96
61 89 108 211 228 237 246 265 272 209 257 320 103 112 62 1 82 121 129 127 130 125 130 143 140 140 140 140 142 143 141 136 133 132 131 127 124 122 120 118 119 119 117 115 112 108 102 98 96
66 91 148 216 230 246 263 271 263 308 287 3 88 116 103 37 92 121 129 127 125 126 127 135 134 136 138 139 141 144 142 138 136 136 133 130 128 125 123 123 124 123 121 119 116 112 106 101 99
127 133 189 210 225 245 262 285 186 234 255 309 101 106 102 40 78 123 123 119 115 115 115 122 130 132 136 136 137 139 141 139 137 137 134 130 128 128 129 129 128 127 126 123 120 116 109 103 102
139 132 193 216 213 236 281 308 279 148 202 338 91 114 150 259 77 114 115 113 112 109 109 111 120 123 129 135 135 135 137 137 136 134 131 130 130 130 133 133 131 129 128 127 123 118 111 105 104
94 149 213 217 204 237 307 340 324 45 87 50 52 94 136 117 99 107 110 108 113 118 114 110 110 114 120 130 135 134 134 133 133 133 132 128 128 130 131 134 134 133 132 130 126 120 113 107 104
118 200 220 228 208 235 335 24 325 51 46 37 31 36 63 100 108 115 129 137 141 143 139 126 119 120 124 131 133 132 133 133 132 133 130 128 129 131 133 137 139 137 134 131 127 123 117 112 106
166 210 224 269 300 293 329 360 356 118 32 214 132 109 91 98 112 124 137 148 155 157 151 145 135 131 124 124 136 132 134 136 136 137 133 130 128 128 130 130 134 135 133 127 125 121 117 115 112
219 260 257 284 316 324 313 297 20 46 224 184 140 131 110 108 122 137 151 155 155 151 158 154 140 132 126 131 143 139 137 141 143 147 142 136 132 132 137 135 138 140 139 131 128 124 121 120 119
246 272 288 304 338 357 45 22 95 342 320 71 91 98 107 105 90 110 126 125 142 157 157 165 155 145 135 131 146 147 146 150 151 152 151 145 143 146 148 148 147 146 143 139 131 126 123 121 121
249 260 300 300 294 289 105 313 28 313 14 67 84 95 99 91 65 55 61 67 109 145 170 167 168 156 144 144 153 153 155 155 154 155 158 154 153 153 154 155 154 152 151 150 142 132 124 118 114
296 308 319 300 267 236 107 322 276 275 47 65 70 70 60 50 52 75 94 130 158 167 152 170 166 154 154 155 159 156 158 157 158 161 160 156 157 157 156 158 159 159 154 143 133 123 114 108 104
351 296 273 285 270 253 134 238 284 319 76 61 46 50 40 28 23 24 18 26 66 123 140 163 171 163 167 163 155 158 162 159 160 161 160 159 161 160 156 157 161 159 151 142 134 126 116 108 105
29 245 249 272 258 146 156 232 296 2 83 72 38 24 12 9 2 2 5 7 42 116 152 146 144 168 181 173 158 157 160 158 160 161 162 164 164 162 158 158 158 154 146 143 140 125 127 124 116
259 245 242 249 273 101 181 234 305 354 75 83 16 4 1 348 330 340 357 4 7 93 127 138 124 145 150 171 155 150 143 152 160 164 169 168 164 161 157 157 156 150 145 143 140 133 119 125 125
246 252 267 269 270 171 190 233 294 321 47 34 3 349 336 315 322 356 11 13 17 26 50 95 100 118 126 168 181 175 177 181 182 175 175 170 166 161 157 155 156 154 155 155 145 137 128 124 126
310 293 299 299 308 213 184 246 276 303 155 223 295 324 321 328 344 352 0 15 14 13 2 355 122 263 187 210 209 196 184 185 187 178 175 171 170 167 162 158 161 161 152 149 151 142 139 146 149
295 250 273 295 333 86 181 270 266 273 322 2 345 330 335 335 327 332 343 352 1 2 338 322 269 261 256 274 218 167 153 150 163 181 186 178 173 175 168 167 163 162 161 164 166 160 155 162 169
283 286 279 278 300 269 201 243 265 268 320 342 332 332 335 340 340 338 342 344 345 334 326 316 311 278 234 194 182 183 186 186 194 192 190 184 175 176 175 171 167 164 165 168 174 171 165 160 166
278 294 281 257 208 292 295 197 278 308 316 317 324 329 335 346 347 343 341 336 336 338 336 333 326 297 264 230 197 199 217 201 189 176 173 179 178 177 178 174 171 169 171 174 172 168 169 166 166
307 318 338 27 106 251 242 189 279 299 294 314 332 344 349 348 349 348 348 352 351 352 352 350 343 323 303 276 220 208 209 203 185 180 181 183 184 182 182 180 178 177 176 179 177 173 173 172 163
14 45 30 359 333 251 246 175 242 296 317 318 326 340 346 355 354 354 357 356 350 349 350 348 347 331 325 303 263 243 218 204 197 192 191 186 187 192 193 191 188 183 184 182 176 173 178 173 169
337 99 145 219 237 283 311 217 233 320 332 1 10 359 359 359 355 350 346 345 344 340 342 344 340 330 328 308 275 282 243 217 212 206 198 194 195 199 192 195 196 193 186 181 174 173 182 177 180
7 13 188 170 262 268 270 297 315 342 4 8 6 4 359 354 350 346 341 340 339 337 333 334 333 328 330 322 298 285 265 232 222 215 206 198 193 192 190 190 193 191 184 179 174 179 184 182 188
84 114 71 89 144 273 290 282 276 315 332 345 353 350 346 348 347 344 341 338 335 331 328 328 334 326 326 327 312 293 284 256 237 212 206 201 193 186 184 185 184 186 184 180 178 182 180 182 190
6 35 61 127 178 195 268 277 252 251 295 316 329 334 337 341 340 338 335 335 335 338 339 338 338 337 335 329 319 299 292 271 249 223 213 202 192 187 187 187 188 187 186 185 184 190 187 188 191
156 168 144 165 271 218 215 271 279 242 314 329 329 333 335 335 334 332 331 338 345 345 343 339 330 327 324 320 313 298 296 277 248 242 227 206 194 193 190 185 188 192 191 190 192 193 193 193 195
Height
1513 1514 1516 1518 1522 1533 1533 1524 1516 1512 1511 1509 1508 1508 1510 1514 1518 1524 1520 1519 1522 1524 1527 1530 1533 1535 1537 1538 1540 1541 1543 1544 1545 1546 1547 1548 1549 1550 1550 1551 1552 1553 1554 1554 1555 1555 1556 1556 1557
1513 1514 1517 1517 1528 1537 1531 1520 1515 1510 1508 1508 1508 1509 1510 1513 1515 1517 1517 1520 1522 1525 1527 1530 1533 1535 1537 1538 1540 1541 1543 1544 1546 1547 1548 1549 1549 1551 1552 1552 1553 1554 1555 1556 1556 1557 1558 1558 1559
1513 1514 1516 1520 1528 1528 1522 1514 1510 1507 1508 1508 1509 1510 1512 1514 1516 1517 1518 1520 1523 1525 1527 1530 1532 1535 1537 1538 1540 1541 1543 1544 1546 1547 1548 1549 1550 1551 1552 1553 1554 1555 1556 1557 1558 1558 1559 1560 1560
1512 1515 1516 1523 1523 1518 1513 1509 1507 1507 1507 1508 1509 1511 1514 1517 1517 1517 1518 1520 1523 1525 1527 1530 1532 1535 1536 1538 1540 1542 1543 1544 1546 1547 1549 1550 1551 1552 1553 1554 1555 1556 1557 1558 1559 1560 1561 1561 1562
1512 1513 1519 1523 1519 1514 1510 1508 1507 1507 1508 1509 1509 1512 1514 1516 1517 1517 1518 1520 1522 1525 1527 1530 1532 1534 1536 1538 1540 1541 1543 1544 1546 1548 1549 1550 1551 1553 1554 1555 1556 1557 1558 1559 1560 1561 1562 1563 1563
1512 1512 1522 1521 1515 1511 1509 1508 1508 1508 1509 1509 1510 1512 1515 1517 1516 1517 1518 1520 1522 1524 1527 1529 1532 1534 1536 1538 1540 1541 1543 1544 1546 1548 1549 1550 1552 1553 1554 1556 1557 1558 1559 1560 1561 1562 1563 1564 1565
1511 1514 1517 1516 1514 1512 1510 1509 1509 1510 1510 1511 1511 1513 1515 1516 1517 1518 1519 1521 1523 1525 1527 1529 1531 1533 1535 1537 1539 1541 1543 1544 1546 1548 1549 1550 1552 1553 1555 1556 1557 1558 1560 1561 1562 1563 1564 1565 1566
1509 1513 1515 1515 1513 1511 1509 1509 1510 1510 1510 1512 1512 1513 1515 1517 1517 1518 1520 1521 1523 1525 1526 1528 1530 1532 1534 1537 1539 1541 1542 1544 1546 1548 1549 1550 1552 1553 1555 1556 1557 1559 1560 1561 1563 1564 1565 1566 1567
1508 1515 1515 1512 1511 1510 1508 1509 1510 1511 1511 1511 1512 1513 1515 1516 1516 1518 1519 1520 1522 1524 1526 1527 1529 1531 1534 1536 1538 1540 1542 1544 1545 1547 1549 1550 1551 1553 1555 1556 1557 1559 1560 1562 1563 1564 1566 1567 1568
1508 1514 1510 1508 1508 1509 1508 1509 1509 1510 1510 1511 1511 1512 1513 1514 1515 1516 1517 1518 1520 1522 1524 1526 1528 1530 1532 1535 1537 1539 1541 1543 1545 1546 1548 1550 1551 1553 1554 1556 1558 1559 1561 1562 1563 1565 1566 1567 1568
1508 1510 1508 1509 1508 1508 1508 1509 1510 1509 1511 1511 1511 1512 1512 1514 1515 1516 1517 1518 1519 1521 1523 1525 1527 1530 1531 1533 1535 1538 1540 1542 1544 1545 1547 1549 1551 1552 1554 1556 1557 1559 1561 1562 1563 1565 1566 1568 1569
1509 1508 1508 1509 1508 1508 1508 1509 1510 1510 1511 1512 1511 1511 1512 1512 1514 1515 1517 1518 1519 1520 1522 1524 1526 1528 1530 1532 1534 1536 1538 1540 1542 1544 1546 1548 1550 1551 1553 1555 1557 1559 1560 1562 1563 1565 1566 1568 1569
1509 1509 1509 1509 1508 1508 1508 1509 1510 1511 1511 1511 1511 1510 1511 1512 1513 1515 1516 1517 1519 1520 1521 1523 1525 1527 1529 1530 1532 1535 1537 1539 1541 1543 1545 1547 1549 1550 1553 1555 1557 1558 1560 1562 1563 1565 1566 1568 1569
1509 1509 1509 1508 1507 1508 1508 1509 1510 1511 1510 1510 1509 1510 1511 1512 1513 1514 1515 1516 1517 1518 1520 1522 1523 1525 1527 1529 1531 1533 1535 1537 1540 1542 1544 1546 1548 1550 1552 1554 1556 1558 1560 1561 1563 1564 1566 1567 1569
1509 1510 1509 1508 1507 1507 1508 1511 1511 1511 1510 1509 1509 1510 1511 1512 1512 1512 1513 1514 1515 1517 1518 1520 1522 1524 1525 1527 1529 1531 1533 1535 1537 1540 1542 1544 1547 1549 1551 1553 1554 1557 1559 1561 1562 1564 1565 1567 1569
1510 1512 1513 1508 1506 1506 1510 1513 1510 1510 1509 1509 1509 1510 1510 1511 1511 1512 1513 1513 1514 1515 1516 1518 1520 1521 1523 1525 1527 1529 1531 1533 1535 1538 1540 1542 1545 1547 1549 1551 1553 1555 1557 1559 1561 1563 1564 1566 1568
1514 1516 1513 1509 1506 1506 1509 1512 1510 1510 1509 1509 1509 1509 1509 1509 1509 1510 1511 1512 1512 1513 1514 1516 1517 1519 1521 1523 1525 1527 1529 1531 1533 1536 1538 1540 1542 1545 1547 1549 1552 1554 1556 1558 1560 1562 1564 1565 1567
1517 1516 1513 1510 1507 1507 1510 1512 1510 1509 1509 1509 1509 1508 1508 1508 1508 1509 1509 1510 1511 1512 1512 1513 1515 1517 1519 1521 1523 1525 1527 1529 1531 1533 1535 1537 1540 1542 1545 1547 1549 1551 1554 1556 1558 1560 1562 1564 1566
1513 1514 1513 1510 1506 1509 1510 1511 1511 1509 1508 1508 1508 1508 1508 1508 1508 1508 1508 1508 1508 1509 1510 1511 1512 1514 1515 1517 1519 1521 1523 1525 1528 1531 1533 1535 1537 1539 1542 1544 1546 1549 1551 1553 1556 1558 1560 1563 1565
1513 1514 1514 1509 1506 1508 1510 1511 1510 1509 1509 1509 1509 1508 1507 1506 1505 1506 1506 1506 1506 1507 1508 1508 1509 1511 1512 1514 1516 1518 1520 1522 1525 1527 1529 1532 1534 1536 1539 1541 1543 1546 1548 1551 1553 1556 1558 1560 1562
1514 1515 1514 1512 1508 1508 1510 1512 1511 1509 1508 1508 1508 1507 1507 1506 1505 1504 1504 1504 1504 1505 1505 1506 1507 1508 1510 1511 1513 1516 1518 1519 1521 1523 1526 1528 1531 1533 1535 1538 1541 1543 1545 1548 1550 1553 1555 1557 1560
1516 1512 1511 1509 1513 1515 1512 1516 1513 1509 1508 1508 1507 1507 1506 1505 1504 1504 1503 1503 1503 1504 1504 1504 1505 1506 1508 1509 1510 1511 1513 1514 1516 1519 1522 1525 1528 1530 1532 1535 1537 1540 1542 1545 1547 1550 1553 1555 1557
1516 1512 1510 1509 1513 1517 1515 1518 1516 1511 1511 1510 1508 1507 1505 1505 1504 1503 1503 1502 1502 1502 1503 1503 1503 1503 1505 1506 1507 1509 1511 1513 1515 1517 1519 1522 1524 1527 1529 1531 1534 1536 1539 1541 1544 1547 1549 1552 1554
1515 1512 1510 1512 1516 1520 1517 1518 1518 1517 1515 1512 1509 1507 1505 1504 1503 1502 1502 1501 1501 1501 1501 1501 1500 1500 1501 1503 1504 1506 1507 1509 1511 1513 1515 1518 1520 1523 1525 1528 1531 1533 1535 1538 1540 1543 1546 1549 1551
1519 1521 1524 1524 1524 1520 1515 1516 1520 1517 1515 1513 1510 1508 1506 1503 1502 1500 1500 1499 1499 1498 1498 1498 1498 1498 1498 1499 1501 1503 1504 1506 1507 1509 1512 1514 1516 1518 1521 1524 1527 1529 1532 1535 1538 1540 1543 1545 1547
1525 1526 1530 1529 1525 1522 1518 1518 1521 1517 1515 1513 1511 1509 1506 1503 1502 1500 1499 1498 1497 1497 1496 1496 1496 1496 1496 1497 1498 1499 1501 1502 1504 1506 1508 1510 1512 1515 1518 1521 1523 1526 1529 1531 1534 1536 1539 1542 1544
1526 1528 1529 1533 1531 1529 1524 1522 1519 1516 1514 1512 1510 1508 1506 1504 1501 1500 1498 1497 1496 1495 1494 1494 1494 1494 1494 1495 1495 1496 1497 1499 1501 1503 1505 1507 1509 1512 1514 1517 1520 1522 1525 1527 1530 1533 1535 1538 1541
1528 1529 1532 1534 1531 1527 1528 1528 1524 1519 1516 1513 1511 1509 1507 1504 1501 1499 1497 1496 1494 1493 1492 1492 1492 1492 1492 1492 1493 1493 1494 1496 1497 1499 1502 1504 1506 1508 1511 1513 1516 1518 1521 1524 1526 1529 1532 1534 1537
1533 1534 1535 1536 1535 1534 1531 1530 1520 1519 1516 1514 1512 1510 1508 1505 1502 1499 1497 1495 1493 1491 1490 1490 1489 1489 1489 1489 1490 1491 1492 1493 1495 1496 1498 1500 1502 1504 1507 1509 1512 1514 1517 1520 1523 1525 1528 1531 1533
1533 1536 1537 1538 1538 1540 1537 1533 1519 1517 1515 1514 1512 1510 1507 1504 1502 1499 1496 1493 1490 1488 1487 1486 1486 1486 1486 1486 1487 1488 1488 1490 1491 1492 1494 1496 1499 1501 1503 1506 1508 1511 1513 1516 1519 1521 1524 1526 1529